Showing default

YAOGAN-30 V, 46808

Orbit data source: Space-Track

YAOGAN-30 V, 46808 is a payload satellite owned by PLA SSF (CN) in LEO that was launched on Mon, 26 Oct 2020 UTC via a CHANG ZHENG 2C launch vehicle from the Xichang Space Center, China (XSC). Payload-class satellites include a variety of spacecraft equipped with specific instruments for various scientific and technological missions. These include communications satellites like Starlink; space stations such as the ISS; scientific satellites like the Hubble; Earth observation satellites from companies like Planet Labs, Umbra, and HawkEye 360; GPS; miniature CubeSats for education and research; and military/defense satellites.

Loading next visibility...
Identifier
46808, 2020-076B
Orbit
LEO
Last TLE update
12 hours ago
Origin
Manufacturer
SECM
Mission
Operational Defense Sigint
Bus & Motor
Unknown
Mass
~500 kg wet, ~500 kg dry
Launch date (UTC)
2020-10-26 (5 years ago)
Launch vehicle
CHANG ZHENG 2C
Launch site
Xichang Space Center, China (XSC)
Object type
Payload
Rocket body
Debris
Shape & HBR
Box + 2 Pan, Unknown HBR
Radar Cross Section
0.446 m², Large (>1 m²)

Expand to show TLE details & history

TLE from 12 hours ago
0 YAOGAN-30 V
1 46808U 20076B   25184.06927021  .00002265  00000-0  18011-3 0  9997
2 46808  34.9950  54.8906 0002330 224.0365 136.0157 15.00144004255734
Epoch: 2025-07-03T01:39Z
TLE epoch observation values (Epoch: 2025-07-03T01:39:44.946Z)
Latitude
-0°
Longitude
108.61201°
Altitude
566.534 km
Speed
7.579 km/s
True Right ascension
03h 39m 33s
True Declination
0° 00' 00"
Sunlit
Object was in daylight at epoch
Visualization orbit readout
Latitude
25.69238°
Longitude
-117.47768°
Altitude
565.744 km
Speed
7.583 km/s
Apparent Right ascension
12h 51m 29s
Apparent Declination
-5° 31' 52"
Sunlit
Object is in daylight
Visualization observer readout
Local Sidereal Time
01:12:19
Azimuth
9.132° NNE
Elevation
-55.296°
Doppler factor
1
Orbital elements
Apogee altitude
571.289 km
Perigee altitude
568.051 km
Semi-major axis
6,947.807 km
Eccentricity
0.00023
Inclination
34.995°
RAAN
54.8906°
Arg. of periapsis
224.0365°
True anomaly
Unknown
Mean anomaly
136.0157°
Eccentric anomaly
Unknown
Mean motion
3.74776 °/min
Orbital period
96.06 mins
BSTAR
0.00018011
Loading maneuver chart data...
Loading SW <> Apogee altitude chart data...
Loading historical data...
Loading historical data...
Loading historical data...
Loading historical data...
Loading historical data...
Loading historical data...
Loading historical data...
Other satellites on launch #76 in the year 2020 (2020-10-26 UTC)

YAOGAN-30 V Visibility forecast

Observer location: undefined°, undefined°

Span
Click to sort rows by Start time (UTC) header in descending order
Start Az.
Max El. time (UTC)
Max El. Az.
Max El.
End time (UTC)
End Az.
6 mins2025-07-03 19:28:30.386Z216.29° SW2025-07-03 19:31:30.386Z168.209° S23.508°2025-07-03 19:34:30.386Z112.461° ESE
6 mins2025-07-03 21:10:30.386Z235.444° WSW2025-07-03 21:12:30.386Z187.608° SSW33.55°2025-07-03 21:16:30.386Z107.642° ESE
6 mins2025-07-03 22:51:30.386Z244.238° WSW2025-07-03 22:53:30.386Z202.565° SW28.467°2025-07-03 22:57:30.386Z129.173° SE
|